FW7205 Weather Reports


time (UTC)temp
C
wind
direction
speed
KPH
gust
KPH
rain 1hr
cm
rain 24hr
cm
rain mn
cm
humidity
%
barometer
mb
20260902003106 31 111 1.6 8.0 0.00 0.00 0.00 63 1011.9
20260902001601 31 75 1.6 9.7 0.00 0.00 0.00 60 1011.8
20260901234609 34 83 3.2 9.7 0.00 0.00 0.00 54 1011.5
20260901233111 35 0 1.6 11.3 0.00 0.00 0.00 49 1011.3
20260901231612 35 67 1.6 6.4 0.00 0.00 0.00 49 1011.2
20260901230104 35 360 3.2 11.3 0.00 0.00 0.00 48 1011.2
20260901224605 35 88 3.2 6.4 0.00 0.00 0.00 49 1011.3
20260901223103 35 87 1.6 6.4 0.00 0.00 0.00 49 1011.2
20260901221620 35 360 1.6 6.4 0.00 0.00 0.00 48 1011.4
20260901220134 35 69 1.6 6.4 0.00 0.00 0.00 48 1011.3
20260901214604 35 66 1.6 8.0 0.00 0.00 0.00 47 1011.3
20260901213122 35 65 0.0 6.4 0.00 0.00 0.00 48 1011.5
20260901211602 35 53 1.6 4.8 0.00 0.00 0.00 48 1011.8
20260901210107 34 360 0.0 4.8 0.00 0.00 0.00 51 1011.9
20260901204609 34 79 1.6 6.4 0.00 0.00 0.00 51 1012.2
20260901203110 34 70 3.2 9.7 0.00 0.00 0.00 51 1012.4
20260901201603 34 74 1.6 8.0 0.00 0.00 0.00 52 1012.8
20260901200100 34 73 0.0 6.4 0.00 0.00 0.00 53 1013.1
20260901194601 33 0 0.0 6.4 0.00 0.00 0.00 53 1013.0
20260901193104 33 80 1.6 8.0 0.00 0.00 0.00 56 1013.3
20260901191616 33 90 0.0 4.8 0.00 0.00 0.00 55 1013.1
20260901190059 33 67 1.6 8.0 0.00 0.00 0.00 54 1013.3
20260901184605 34 68 1.6 6.4 0.00 0.00 0.00 54 1013.5
20260901183104 35 71 3.2 11.3 0.00 0.00 0.00 51 1013.8
20260901181602 35 82 0.0 8.0 0.00 0.00 0.00 51 1014.0
20260901180059 35 0 0.0 4.8 0.00 0.00 0.00 55 1014.2
20260901174602 34 69 1.6 8.0 0.00 0.00 0.00 55 1014.7
20260901173129 34 76 0.0 6.4 0.00 0.00 0.00 55 1015.0
20260901171611 33 67 1.6 8.0 0.00 0.00 0.00 56 1015.1
20260901164601 33 146 3.2 8.0 0.00 0.00 0.00 59 1015.3
20260901163105 32 82 3.2 6.4 0.00 0.00 0.00 62 1015.4
20260901161602 32 360 0.0 3.2 0.00 0.00 0.00 65 1015.6
20260901160106 31 0 0.0 1.6 0.00 0.00 0.00 66 1015.5
20260901154601 31 0 0.0 3.2 0.00 0.00 0.00 70 1015.5
20260901153109 30 0 0.0 1.6 0.00 0.00 0.00 71 1015.5
20260901151609 30 0 0.0 3.2 0.00 0.00 0.00 73 1015.5
20260901150100 30 0 0.0 4.8 0.00 0.00 0.00 75 1015.6
20260901144604 29 0 0.0 4.8 0.00 0.00 0.00 78 1015.5
20260901143100 28 146 0.0 1.6 0.00 0.00 0.00 79 1015.4
20260901141603 27 0 0.0 1.6 0.00 0.00 0.00 81 1015.8
20260901140104 27 0 0.0 0.0 0.00 0.00 0.00 83 1015.9
20260901134616 26 0 0.0 3.2 0.00 0.00 0.00 85 1015.9
20260901133104 26 0 0.0 3.2 0.00 0.00 0.00 86 1015.9
20260901131606 25 154 0.0 3.2 0.00 0.00 0.00 87 1015.7
20260901130111 25 0 0.0 1.6 0.00 0.00 0.00 87 1015.6
20260901124600 25 0 0.0 0.0 0.00 0.00 0.00 87 1015.3
20260901123107 25 0 0.0 0.0 0.00 0.00 0.00 86 1015.2
20260901121603 25 0 0.0 0.0 0.00 0.00 0.00 86 1015.0
20260901120104 25 0 0.0 0.0 0.00 0.00 0.00 86 1014.9
20260901114559 25 0 0.0 0.0 0.00 0.00 0.00 85 1014.5
20260901113117 25 0 0.0 0.0 0.00 0.00 0.00 85 1014.6
20260901111602 25 0 0.0 0.0 0.00 0.00 0.00 85 1014.6
20260901110126 25 0 0.0 0.0 0.00 0.00 0.00 85 1014.3
20260901104621 25 0 0.0 0.0 0.00 0.00 0.00 84 1014.3
20260901103102 25 0 0.0 0.0 0.00 0.00 0.00 84 1014.4
20260901101607 26 0 0.0 0.0 0.00 0.00 0.00 84 1014.2
20260901100118 26 0 0.0 0.0 0.00 0.00 0.00 84 1014.2
20260901094615 26 0 0.0 0.0 0.00 0.00 0.00 83 1014.2
20260901093126 26 0 0.0 0.0 0.00 0.00 0.00 83 1014.2
20260901091614 26 0 0.0 0.0 0.00 0.00 0.00 82 1014.5
20260901090107 26 0 0.0 0.0 0.00 0.00 0.00 82 1014.3
20260901084613 26 0 0.0 0.0 0.00 0.00 0.00 81 1014.3
20260901083102 26 0 0.0 0.0 0.00 0.00 0.00 81 1014.4
20260901081600 26 0 0.0 0.0 0.00 0.00 0.00 81 1014.5
20260901080110 27 0 0.0 0.0 0.00 0.00 0.00 80 1014.4
20260901074604 27 0 0.0 0.0 0.00 0.00 0.00 79 1014.5
20260901073109 27 0 0.0 0.0 0.00 0.00 0.00 79 1014.4
20260901071605 27 0 0.0 0.0 0.00 0.00 0.00 78 1014.6
20260901070109 27 0 0.0 1.6 0.00 0.00 0.00 77 1014.6
20260901064604 27 0 0.0 0.0 0.00 0.00 0.00 77 1014.7
20260901063059 27 0 0.0 1.6 0.00 0.00 0.00 76 1014.8
20260901061602 27 0 0.0 1.6 0.00 0.00 0.00 75 1014.8
20260901060105 28 0 0.0 1.6 0.00 0.00 0.00 74 1014.6
20260901054609 28 0 0.0 1.6 0.00 0.00 0.00 72 1014.6
20260901053105 28 0 0.0 0.0 0.00 0.00 0.00 71 1014.5
20260901051608 28 0 0.0 1.6 0.00 0.00 0.00 70 1014.2
20260901050108 28 0 0.0 1.6 0.00 0.00 0.00 69 1014.2
20260901044601 28 0 0.0 1.6 0.00 0.00 0.00 68 1014.2
20260901043102 29 0 0.0 1.6 0.00 0.00 0.00 68 1013.9
20260901041625 29 0 0.0 3.2 0.00 0.00 0.00 67 1013.9
20260901040113 29 0 0.0 1.6 0.00 0.00 0.00 66 1013.8
20260901034610 30 0 0.0 0.0 0.00 0.00 0.00 66 1013.7
20260901033107 30 0 0.0 1.6 0.00 0.00 0.00 67 1013.6
20260901031559 30 0 0.0 3.2 0.00 0.00 0.00 66 1013.4
20260901030100 30 0 0.0 0.0 0.00 0.00 0.00 66 1013.5
20260901024603 30 0 0.0 0.0 0.00 0.00 0.00 66 1013.1
20260901023101 31 0 0.0 0.0 0.00 0.00 0.00 65 1012.9
20260901021600 31 0 0.0 1.6 0.00 0.00 0.00 64 1012.9
20260901020105 31 0 0.0 1.6 0.00 0.00 0.00 63 1012.8
20260901014605 31 0 0.0 3.2 0.00 0.15 0.00 62 1012.5
20260901013110 32 0 0.0 1.6 0.00 0.15 0.00 61 1012.8
20260901011600 32 0 0.0 3.2 0.00 0.15 0.00 60 1012.5
20260901010108 32 135 1.6 4.8 0.00 0.15 0.00 57 1012.5
20260901004606 33 171 3.2 6.4 0.00 0.28 0.00 56 1012.4